Weather History for Myrtle Beach, SC

Change the Weather History Date:

Tuesday, December 11, 2012

  Actual Average Record
Temperature  
Mean Temperature 66 °F -  
Max Temperature 71 °F 57 °F 75 °F (2007)
Min Temperature 60 °F 38 °F 21 °F (1954)
Growing Degree Days 16 (Base 50)    
Moisture  
Dew Point 62 °F    
Average Humidity 89    
Maximum Humidity 100    
Minimum Humidity 64    
Precipitation  
Precipitation 0.00 in - - ()
Sea Level Pressure  
Sea Level Pressure 29.90 in    
Wind  
Wind Speed 9 mph (WSW)    
Max Wind Speed 15 mph    
Max Gust Speed 23 mph    
Visibility 10 miles    
Events      
Averages and records for this station are not official NWS values.
T = Trace of Precipitation, MM = Missing Value Source: NWS Daily Summary

Daily Weather History Graph

Daily Weather History Graph

Search for Another Location

Airport:

Trip Planner

Search our weather history database for the weather conditions in past years. The results will help you decide how hot, cold, wet, or windy it might be!

Date:

Astronomy

Dec. 11, 2012 Rise Set
Actual Time 7:10 AM EST 5:07 PM EST
Civil Twilight 6:42 AM EST 5:35 PM EST
Nautical Twilight 6:11 AM EST 6:06 PM EST
Astronomical Twilight 5:41 AM EST 6:36 PM EST
Moon 5:05 AM EST (12/11) 3:43 PM EST (12/11)
Length of Visible Light 10h 52m
Length of Day
9h 57m
Waning Crescent, 4% of the Moon is Illuminated
Dec 11
Waning Crescent
Dec 13
New
Dec 20
First Quarter
Dec 28
Full
Jan 4
Last Quarter

Hourly Weather History & Observations

Time (EST) Temp. Dew Point Humidity Pressure Visibility Wind Dir Wind Speed Gust Speed Precip Events Conditions
12:15 AM 64.4 °F 62.6 °F 94% 29.79 in 10.0 mi South 10.4 mph - N/A   Clear
12:35 AM 66.2 °F 66.2 °F 100% 29.79 in 10.0 mi SSW 15.0 mph 20.7 mph N/A   Mostly Cloudy
12:55 AM 68.0 °F 66.2 °F 94% 29.80 in 10.0 mi SSW 13.8 mph 23.0 mph N/A   Overcast
1:15 AM 68.0 °F 66.2 °F 94% 29.79 in 10.0 mi SSW 13.8 mph 20.7 mph N/A   Overcast
1:35 AM 68.0 °F 66.2 °F 94% 29.80 in 10.0 mi SSW 6.9 mph - N/A   Mostly Cloudy
1:55 AM 68.0 °F 66.2 °F 94% 29.79 in 10.0 mi South 6.9 mph - N/A   Scattered Clouds
2:15 AM 66.2 °F 66.2 °F 100% 29.80 in 9.0 mi South 8.1 mph - N/A   Clear
2:35 AM 66.2 °F 66.2 °F 100% 29.80 in 7.0 mi SSW 8.1 mph - N/A   Scattered Clouds
2:55 AM 66.2 °F 66.2 °F 100% 29.80 in 10.0 mi SSW 5.8 mph - N/A   Scattered Clouds
3:15 AM 66.2 °F 66.2 °F 100% 29.80 in 10.0 mi SW 4.6 mph - N/A   Clear
3:35 AM 66.2 °F 64.4 °F 94% 29.81 in 9.0 mi SE 9.2 mph - N/A   Clear
3:55 AM 62.6 °F 62.6 °F 100% 29.81 in 7.0 mi SSE 6.9 mph - N/A   Clear
4:15 AM 62.6 °F 62.6 °F 100% 29.82 in 8.0 mi South 4.6 mph - N/A   Clear
4:35 AM 64.4 °F 62.6 °F 94% 29.81 in 10.0 mi South 3.5 mph - N/A   Clear
4:55 AM 64.4 °F 64.4 °F 100% 29.82 in 10.0 mi WSW 6.9 mph - N/A   Clear
5:15 AM 66.2 °F 62.6 °F 88% 29.83 in 10.0 mi WSW 6.9 mph - N/A   Clear
5:35 AM 66.2 °F 62.6 °F 88% 29.83 in 10.0 mi WSW 5.8 mph - N/A   Clear
5:55 AM 64.4 °F 62.6 °F 94% 29.84 in 10.0 mi WSW 6.9 mph - N/A   Clear
6:50 AM 64.4 °F 62.6 °F 94% 29.87 in 10.0 mi West 9.2 mph - N/A   Scattered Clouds
7:50 AM 64.4 °F 62.6 °F 94% 29.89 in 10.0 mi West 9.2 mph - N/A   Scattered Clouds
8:55 AM 64.4 °F 62.6 °F 94% 29.92 in 10.0 mi West 11.5 mph - N/A   Clear
9:50 AM 66.2 °F 62.6 °F 88% 29.95 in 8.0 mi West 11.5 mph - N/A   Mostly Cloudy
10:19 AM 68.0 °F 60.8 °F 78% 29.95 in 10.0 mi West 9.2 mph - N/A   Scattered Clouds
10:50 AM 69.8 °F 60.8 °F 73% 29.95 in 10.0 mi NW 13.8 mph - N/A   Partly Cloudy
11:15 AM 71.6 °F 60.8 °F 69% 29.96 in 10.0 mi NW 13.8 mph - N/A   Mostly Cloudy
11:50 AM 69.8 °F 59.0 °F 68% 29.95 in 10.0 mi NW 11.5 mph - N/A   Scattered Clouds
12:50 PM 71.6 °F 60.8 °F 69% 29.94 in 10.0 mi West 8.1 mph - N/A   Mostly Cloudy
1:45 PM 71.6 °F 59.0 °F 64% 29.94 in 10.0 mi West 9.2 mph - N/A   Mostly Cloudy
2:50 PM 71.6 °F 59.0 °F 64% 29.95 in 10.0 mi West 9.2 mph - N/A   Mostly Cloudy
3:45 PM 69.8 °F 59.0 °F 68% 29.96 in 10.0 mi West 8.1 mph - N/A   Overcast
4:45 PM 64.4 °F 60.8 °F 88% 29.98 in 8.0 mi West 6.9 mph - N/A   Overcast
5:45 PM 62.6 °F 60.8 °F 94% 29.99 in 8.0 mi Calm Calm - N/A   Partly Cloudy
6:45 PM 62.6 °F 60.8 °F 94% 30.02 in 10.0 mi Calm Calm - N/A   Scattered Clouds
7:45 PM 62.6 °F 59.0 °F 88% 30.02 in 10.0 mi Calm Calm - N/A   Scattered Clouds
8:45 PM 60.8 °F 60.8 °F 100% 30.04 in 10.0 mi Calm Calm - N/A   Scattered Clouds
9:45 PM 62.6 °F 57.2 °F 82% 30.06 in 10.0 mi Calm Calm - N/A   Overcast
11:15 PM 60.8 °F 57.2 °F 88% 30.07 in 8.0 mi Calm Calm - N/A   Overcast
11:35 PM 60.8 °F 57.2 °F 88% 30.07 in 10.0 mi NNW 3.5 mph - N/A   Overcast
11:55 PM 60.8 °F 57.2 °F 88% 30.08 in 10.0 mi WNW 3.5 mph - N/A   Overcast